KE4OGG Weather Reports


Display with metric or nautical units.
time (UTC)temp
F
wind
direction
speed
MPH
gust
MPH
rain 1hr
in
rain 24hr
in
rain mn
in
humidity
%
barometer
mb
20260510001024 68 248 0.0 1.0 0.00 0.00 0.00 58 1012.4
20260510000524 68 0 0.0 2.0 0.00 0.00 0.00 58 1012.4
20260510000038 69 249 0.0 2.0 0.00 0.00 0.00 58 1012.4
20260509235523 69 148 0.0 3.0 0.00 0.00 0.00 57 1012.1
20260509235023 69 0 0.0 4.0 0.00 0.00 0.00 57 1012.2
20260509234540 70 0 0.0 4.0 0.00 0.00 0.00 56 1012.3
20260509234022 70 188 0.0 5.0 0.00 0.00 0.00 56 1012.2
20260509233523 70 131 0.0 5.0 0.00 0.00 0.00 56 1012.2
20260509233036 70 138 1.0 4.0 0.00 0.00 0.00 56 1011.9
20260509232523 71 151 0.0 2.0 0.00 0.00 0.00 55 1012.0
20260509232023 71 191 0.0 4.0 0.00 0.00 0.00 55 1011.9
20260509231538 71 101 0.0 4.0 0.00 0.00 0.00 55 1011.8
20260509231023 71 84 0.0 4.0 0.00 0.00 0.00 54 1011.8
20260509230523 71 133 1.0 4.0 0.00 0.00 0.00 54 1011.7
20260509230041 71 252 0.0 3.0 0.00 0.00 0.00 54 1011.8
20260509225523 71 137 1.0 7.0 0.00 0.00 0.00 54 1011.7
20260509225023 72 85 2.0 7.0 0.00 0.00 0.00 54 1011.7
20260509224539 72 101 0.0 2.0 0.00 0.00 0.00 54 1011.7
20260509224023 72 136 0.0 3.0 0.00 0.00 0.00 53 1011.6
20260509223526 72 0 0.0 3.0 0.00 0.00 0.00 53 1011.6
20260509223039 72 0 0.0 3.0 0.00 0.00 0.00 52 1011.7
20260509222523 73 0 0.0 2.0 0.00 0.00 0.00 52 1011.8
20260509222023 73 287 0.0 6.0 0.00 0.00 0.00 52 1011.8
20260509221542 73 0 1.0 6.0 0.00 0.00 0.00 51 1011.8
20260509221023 73 288 0.0 4.0 0.00 0.00 0.00 51 1011.8
20260509220523 74 174 1.0 4.0 0.00 0.00 0.00 50 1011.5
20260509220038 74 157 1.0 4.0 0.00 0.00 0.00 51 1011.6
20260509215524 74 164 0.0 4.0 0.00 0.00 0.00 50 1011.7
20260509215023 74 240 0.0 4.0 0.00 0.00 0.00 50 1011.6
20260509214539 74 128 1.0 4.0 0.00 0.00 0.00 48 1011.5
20260509214026 75 154 1.0 3.0 0.00 0.00 0.00 49 1011.5
20260509213524 76 153 0.0 7.0 0.00 0.00 0.00 49 1011.5
20260509213038 75 0 0.0 7.0 0.00 0.00 0.00 49 1011.3
20260509212524 74 126 2.0 7.0 0.00 0.00 0.00 50 1011.3
20260509212027 74 103 0.0 3.0 0.00 0.00 0.00 49 1011.1
20260509211545 74 72 1.0 7.0 0.00 0.00 0.00 50 1011.2
20260509211025 74 121 1.0 7.0 0.00 0.00 0.00 51 1011.2
20260509210524 74 108 1.0 6.0 0.00 0.00 0.00 52 1011.1
20260509210040 74 139 2.0 6.0 0.00 0.00 0.00 50 1011.2
20260509205523 74 126 1.0 6.0 0.00 0.00 0.00 50 1011.3
20260509205023 74 136 1.0 6.0 0.00 0.00 0.00 50 1011.4
20260509204534 74 324 1.0 6.0 0.00 0.00 0.00 51 1011.1
20260509204023 74 195 1.0 10.0 0.00 0.00 0.00 51 1011.1
20260509203523 74 205 2.0 10.0 0.00 0.00 0.00 49 1011.3
20260509203040 75 81 2.0 12.0 0.00 0.00 0.00 48 1011.2
20260509202523 76 301 2.0 12.0 0.00 0.00 0.00 47 1011.3
20260509202024 76 155 2.0 5.0 0.00 0.00 0.00 46 1011.4
20260509201537 77 120 1.0 3.0 0.00 0.00 0.00 46 1011.3
20260509201023 78 115 1.0 2.0 0.00 0.00 0.00 45 1011.6
20260509200523 78 262 1.0 3.0 0.00 0.00 0.00 45 1011.4
20260509200044 78 231 1.0 3.0 0.00 0.00 0.00 45 1011.3
20260509195529 78 255 1.0 5.0 0.00 0.00 0.00 46 1011.5
20260509195025 77 166 1.0 5.0 0.00 0.00 0.00 46 1011.4
20260509194538 78 142 1.0 6.0 0.00 0.00 0.00 46 1011.5
20260509194023 77 118 2.0 6.0 0.00 0.00 0.00 46 1011.6
20260509193523 77 132 1.0 6.0 0.00 0.00 0.00 47 1011.5
20260509193037 78 305 0.0 4.0 0.00 0.00 0.00 46 1011.5
20260509192523 77 293 1.0 4.0 0.00 0.00 0.00 46 1011.7
20260509192027 77 148 0.0 6.0 0.00 0.00 0.00 51 1011.7
20260509191537 76 150 2.0 6.0 0.00 0.00 0.00 53 1011.7
20260509191024 76 108 1.0 5.0 0.00 0.00 0.00 53 1011.7
20260509190523 76 152 1.0 2.0 0.00 0.00 0.00 53 1011.7
20260509190356 75 110 1.0 2.0 0.00 0.00 0.00 53 1011.8
20260509185523 75 122 1.0 2.0 0.00 0.00 0.00 54 1011.6
20260509185024 76 263 1.0 4.0 0.00 0.00 0.00 54 1011.6
20260509184549 76 323 0.0 4.0 0.00 0.00 0.00 59 1011.8
20260509184023 75 150 1.0 4.0 0.00 0.00 0.00 59 1011.8
20260509183523 75 172 1.0 2.0 0.00 0.00 0.00 59 1011.8
20260509183039 75 131 1.0 2.0 0.00 0.00 0.00 58 1012.0
20260509182524 75 264 0.0 2.0 0.00 0.00 0.00 60 1012.1
20260509182026 74 268 0.0 2.0 0.00 0.00 0.00 60 1012.0
20260509181545 74 158 0.0 2.0 0.00 0.00 0.00 60 1012.1
20260509181026 74 132 0.0 3.0 0.00 0.00 0.00 60 1012.1
20260509180525 73 82 1.0 3.0 0.00 0.00 0.00 62 1012.0
20260509180038 74 82 1.0 3.0 0.00 0.00 0.00 60 1012.1
20260509175523 74 234 1.0 4.0 0.00 0.00 0.00 60 1012.1
20260509175023 74 203 1.0 4.0 0.00 0.00 0.00 60 1012.2
20260509174536 74 303 0.0 3.0 0.00 0.00 0.00 61 1012.2
20260509174022 74 205 1.0 3.0 0.00 0.00 0.00 60 1012.2
20260509173526 74 154 1.0 3.0 0.00 0.00 0.00 61 1012.3
20260509173042 74 94 0.0 3.0 0.00 0.00 0.00 61 1012.2
20260509172525 74 251 0.0 2.0 0.00 0.00 0.00 63 1012.2
20260509172023 72 257 0.0 4.0 0.00 0.00 0.00 63 1012.4
20260509171538 71 255 0.0 4.0 0.00 0.00 0.00 65 1012.4
20260509171023 71 295 0.0 3.0 0.00 0.00 0.00 65 1012.5
20260509170523 70 285 0.0 4.0 0.00 0.00 0.00 65 1012.7
20260509170038 70 273 0.0 4.0 0.00 0.00 0.00 66 1012.8
20260509165523 70 271 0.0 4.0 0.00 0.00 0.00 66 1013.0
20260509165023 69 333 0.0 4.0 0.00 0.00 0.00 66 1012.9
20260509164537 69 0 0.0 4.0 0.00 0.00 0.00 66 1013.0
20260509164028 70 137 0.0 2.0 0.00 0.00 0.00 66 1013.2
20260509163523 69 0 0.0 2.0 0.00 0.00 0.00 66 1013.1
20260509163042 69 233 0.0 6.0 0.00 0.00 0.00 65 1013.1
20260509162523 69 158 1.0 6.0 0.00 0.00 0.00 66 1012.9
20260509162025 69 131 0.0 3.0 0.00 0.00 0.00 66 1013.1
20260509161539 69 118 1.0 3.0 0.00 0.00 0.00 67 1013.0
20260509161023 68 0 0.0 1.0 0.00 0.00 0.00 67 1013.2
20260509160524 68 206 0.0 1.0 0.00 0.00 0.00 67 1013.2
20260509160038 67 217 0.0 2.0 0.00 0.00 0.00 68 1013.1
20260509155523 67 0 0.0 2.0 0.00 0.00 0.00 68 1013.4
20260509155027 66 0 0.0 3.0 0.00 0.00 0.00 69 1013.5
20260509154543 66 0 0.0 3.0 0.00 0.00 0.00 69 1013.5
20260509154028 65 139 0.0 2.0 0.00 0.00 0.00 69 1013.5
20260509153526 65 281 0.0 1.0 0.00 0.00 0.00 69 1013.5
20260509153037 65 0 0.0 1.0 0.00 0.00 0.00 69 1013.5
20260509152523 65 0 0.0 1.0 0.00 0.00 0.00 69 1013.7
20260509152024 65 0 0.0 1.0 0.00 0.00 0.00 69 1013.7
20260509151537 65 0 0.0 1.0 0.00 0.00 0.00 69 1013.7
20260509151023 65 0 0.0 0.0 0.00 0.00 0.00 71 1013.6
20260509150523 64 0 0.0 0.0 0.00 0.00 0.00 71 1013.5
20260509150035 64 0 0.0 0.0 0.00 0.00 0.00 71 1013.5
20260509145523 64 0 0.0 0.0 0.00 0.00 0.00 71 1013.5
20260509145022 63 0 0.0 0.0 0.00 0.00 0.00 72 1013.4
20260509144542 63 0 0.0 1.0 0.00 0.00 0.00 72 1013.4
20260509144022 63 0 0.0 2.0 0.00 0.00 0.00 72 1013.3
20260509143523 63 0 0.0 2.0 0.00 0.00 0.00 71 1013.4
20260509143046 63 0 0.0 2.0 0.00 0.00 0.00 71 1013.3
20260509142523 63 0 0.0 1.0 0.00 0.00 0.00 71 1013.3
20260509142023 63 0 0.0 1.0 0.00 0.00 0.00 72 1013.2
20260509141542 63 104 0.0 3.0 0.00 0.00 0.00 72 1013.1
20260509141025 62 0 0.0 5.0 0.00 0.00 0.00 72 1013.0
20260509140523 62 105 1.0 5.0 0.00 0.00 0.00 72 1012.8
20260509140047 63 91 0.0 3.0 0.00 0.00 0.00 72 1012.7
20260509135523 62 0 0.0 3.0 0.00 0.00 0.00 73 1012.8
20260509135022 62 0 2.0 3.0 0.00 0.00 0.00 72 1012.8
20260509134536 63 98 0.0 3.0 0.00 0.00 0.00 72 1012.9
20260509134023 62 0 0.0 0.0 0.00 0.00 0.00 73 1012.9
20260509133527 62 0 0.0 1.0 0.00 0.00 0.00 73 1012.8
20260509133041 62 0 0.0 1.0 0.00 0.00 0.00 73 1012.7
20260509132523 61 0 0.0 1.0 0.00 0.00 0.00 74 1012.5
20260509132025 61 0 0.0 2.0 0.00 0.00 0.00 73 1012.5
20260509131542 61 0 0.0 2.0 0.00 0.00 0.00 73 1012.5
20260509131025 61 108 0.0 1.0 0.00 0.00 0.00 73 1012.8
20260509130523 61 0 0.0 0.0 0.00 0.00 0.00 73 1012.8
20260509130043 61 0 0.0 0.0 0.00 0.00 0.00 74 1012.9
20260509125523 60 0 0.0 0.0 0.00 0.00 0.00 74 1013.0
20260509125023 60 0 0.0 0.0 0.00 0.00 0.00 73 1012.8
20260509124540 60 0 0.0 0.0 0.00 0.00 0.00 74 1012.9
20260509124023 60 0 0.0 0.0 0.00 0.00 0.00 74 1012.8
20260509123523 59 0 0.0 0.0 0.00 0.00 0.00 75 1013.0
20260509123048 59 0 0.0 0.0 0.00 0.00 0.00 74 1013.3
20260509122523 59 0 0.0 1.0 0.00 0.00 0.00 75 1013.5
20260509122023 58 0 0.0 1.0 0.00 0.00 0.00 75 1013.6
20260509121539 58 0 0.0 1.0 0.00 0.00 0.00 75 1013.6
20260509121023 58 0 0.0 0.0 0.00 0.00 0.00 76 1013.3
20260509120522 58 0 0.0 1.0 0.00 0.00 0.00 76 1013.4
20260509120037 57 0 0.0 1.0 0.00 0.00 0.00 76 1013.3
20260509115523 57 0 0.0 0.0 0.00 0.00 0.00 76 1013.4
20260509115026 57 0 0.0 0.0 0.00 0.00 0.00 76 1013.3
20260509114540 57 0 0.0 1.0 0.00 0.00 0.00 77 1013.4
20260509114023 57 0 0.0 2.0 0.00 0.00 0.00 78 1013.4
20260509113524 57 0 0.0 2.0 0.00 0.00 0.00 79 1013.4
20260509113047 57 107 0.0 2.0 0.00 0.00 0.00 81 1013.4
20260509112523 57 0 0.0 0.0 0.00 0.00 0.00 82 1013.1
20260509112024 56 0 0.0 0.0 0.00 0.00 0.00 82 1013.0
20260509111545 56 0 0.0 0.0 0.00 0.00 0.00 82 1013.0
20260509111024 56 0 0.0 0.0 0.00 0.00 0.00 82 1013.2
20260509110522 56 0 0.0 0.0 0.00 0.00 0.00 82 1013.3
20260509110041 56 0 0.0 0.0 0.00 0.00 0.00 82 1013.3
20260509105523 56 0 0.0 0.0 0.00 0.00 0.00 83 1013.0
20260509105023 56 0 0.0 0.0 0.00 0.00 0.00 83 1013.2
20260509104539 56 0 0.0 0.0 0.00 0.00 0.00 83 1013.1
20260509104024 56 0 0.0 0.0 0.00 0.00 0.00 83 1013.0
20260509103526 55 0 0.0 0.0 0.00 0.00 0.00 82 1012.9
20260509103049 55 0 0.0 0.0 0.00 0.00 0.00 82 1012.8
20260509102523 55 0 0.0 0.0 0.00 0.00 0.00 82 1012.8
20260509102024 56 0 0.0 0.0 0.00 0.00 0.00 82 1012.8
20260509101538 56 0 0.0 0.0 0.00 0.00 0.00 83 1013.0
20260509101024 56 0 0.0 0.0 0.00 0.00 0.00 83 1013.1
20260509100523 56 0 0.0 0.0 0.00 0.00 0.00 83 1013.1
20260509100053 56 0 0.0 0.0 0.00 0.00 0.00 83 1013.0
20260509095523 55 0 0.0 1.0 0.00 0.00 0.00 83 1013.0
20260509095022 55 0 0.0 1.0 0.00 0.00 0.00 83 1012.9
20260509094547 55 0 0.0 0.0 0.00 0.00 0.00 83 1013.0
20260509094023 56 0 0.0 0.0 0.00 0.00 0.00 83 1013.0
20260509093523 56 0 0.0 0.0 0.00 0.00 0.00 83 1013.0
20260509093038 56 0 0.0 0.0 0.00 0.00 0.00 83 1012.9
20260509092523 56 0 0.0 1.0 0.00 0.00 0.00 83 1013.0
20260509092023 56 0 0.0 1.0 0.00 0.00 0.00 84 1012.9
20260509091539 56 0 0.0 1.0 0.00 0.00 0.00 84 1012.9
20260509091022 55 0 0.0 0.0 0.00 0.00 0.00 84 1012.7
20260509090523 55 0 0.0 0.0 0.00 0.00 0.00 83 1012.5
20260509090037 55 0 0.0 0.0 0.00 0.00 0.00 83 1012.5
20260509085523 55 0 0.0 0.0 0.00 0.00 0.00 84 1012.5
20260509085023 55 0 0.0 1.0 0.00 0.00 0.00 84 1012.7
20260509084537 55 0 0.0 1.0 0.00 0.00 0.00 84 1012.8
20260509084023 55 0 0.0 1.0 0.00 0.00 0.00 84 1012.9
20260509083522 55 0 0.0 1.0 0.00 0.00 0.00 84 1012.8
20260509083044 54 0 0.0 1.0 0.00 0.00 0.00 85 1012.8
20260509082527 54 0 0.0 0.0 0.00 0.00 0.00 84 1012.8
20260509082027 54 0 0.0 0.0 0.00 0.00 0.00 84 1012.7
20260509081538 54 0 0.0 0.0 0.00 0.00 0.00 84 1012.5
20260509081025 53 0 0.0 0.0 0.00 0.00 0.00 83 1012.5
20260509080527 53 0 0.0 0.0 0.00 0.00 0.00 83 1012.5
20260509080046 53 0 0.0 0.0 0.00 0.00 0.00 83 1012.5
20260509075522 53 0 0.0 0.0 0.00 0.00 0.00 82 1012.5
20260509075023 53 0 0.0 0.0 0.00 0.00 0.00 82 1012.7
20260509074541 53 0 0.0 0.0 0.00 0.00 0.00 82 1012.7
20260509074027 54 0 0.0 0.0 0.00 0.00 0.00 82 1012.8
20260509073523 54 0 0.0 0.0 0.00 0.00 0.00 82 1012.9
20260509073044 54 0 0.0 0.0 0.00 0.00 0.00 81 1012.8
20260509072525 54 0 0.0 0.0 0.00 0.00 0.00 82 1012.9
20260509072024 54 0 0.0 0.0 0.00 0.00 0.00 81 1012.9
20260509071540 54 0 0.0 0.0 0.00 0.00 0.00 81 1013.0
20260509071023 54 0 0.0 0.0 0.00 0.00 0.00 81 1013.1
20260509070523 54 0 0.0 0.0 0.00 0.00 0.00 81 1013.0
20260509070041 55 0 0.0 1.0 0.00 0.00 0.00 81 1013.3
20260509065525 55 0 0.0 1.0 0.00 0.00 0.00 81 1013.3
20260509065023 54 0 0.0 1.0 0.00 0.00 0.00 82 1013.5
20260509064537 54 0 0.0 0.0 0.00 0.00 0.00 81 1013.7
20260509064024 54 0 0.0 0.0 0.00 0.00 0.00 80 1013.9
20260509063523 54 0 0.0 0.0 0.00 0.00 0.00 78 1014.0
20260509063039 54 0 0.0 0.0 0.00 0.00 0.00 77 1014.0
20260509062523 54 0 0.0 0.0 0.00 0.00 0.00 76 1014.1
20260509062024 54 0 0.0 0.0 0.00 0.00 0.00 75 1014.2
20260509061555 54 0 0.0 0.0 0.00 0.00 0.00 75 1014.2
20260509061023 54 0 0.0 0.0 0.00 0.00 0.00 73 1014.3
20260509060523 54 0 0.0 0.0 0.00 0.00 0.00 72 1014.4
20260509060040 54 0 0.0 0.0 0.00 0.00 0.00 70 1014.4
20260509055530 55 0 0.0 0.0 0.00 0.00 0.00 69 1014.4
20260509055022 55 0 0.0 0.0 0.00 0.00 0.00 69 1014.4
20260509054549 55 0 0.0 0.0 0.00 0.00 0.00 69 1014.4
20260509054022 55 0 0.0 0.0 0.00 0.00 0.00 68 1014.5
20260509053523 56 0 0.0 0.0 0.00 0.00 0.00 67 1014.4
20260509053053 56 0 0.0 0.0 0.00 0.00 0.00 67 1014.4
20260509052527 56 0 0.0 0.0 0.00 0.00 0.00 67 1014.5
20260509052023 56 0 0.0 0.0 0.00 0.00 0.00 67 1014.6
20260509051538 56 0 0.0 0.0 0.00 0.00 0.00 67 1014.6
20260509051027 56 0 0.0 0.0 0.00 0.00 0.00 66 1014.6
20260509050524 57 0 0.0 0.0 0.00 0.00 0.00 65 1014.6
20260509050037 57 0 0.0 0.0 0.00 0.00 0.00 65 1014.7
20260509045526 57 0 0.0 0.0 0.00 0.00 0.00 65 1014.8
20260509045024 57 0 0.0 0.0 0.00 0.00 0.00 65 1014.8
20260509044545 57 0 0.0 0.0 0.00 0.00 0.00 64 1014.9
20260509044023 58 0 0.0 0.0 0.00 0.00 0.00 64 1014.9
20260509043523 58 0 0.0 0.0 0.00 0.00 0.00 63 1015.0
20260509043037 58 0 0.0 0.0 0.00 0.00 0.00 63 1015.1
20260509042523 58 0 0.0 0.0 0.00 0.00 0.00 63 1015.2
20260509042023 58 0 0.0 0.0 0.00 0.00 0.00 63 1015.2
20260509041539 59 0 0.0 0.0 0.00 0.00 0.00 62 1015.3
20260509041023 59 0 0.0 1.0 0.00 0.00 0.00 61 1015.4
20260509040523 59 0 0.0 1.0 0.00 0.00 0.00 61 1015.4
20260509040038 59 0 0.0 1.0 0.00 0.00 0.00 61 1015.5
20260509035524 59 0 0.0 0.0 0.00 0.00 0.00 60 1015.4
20260509035023 59 0 0.0 0.0 0.00 0.00 0.00 60 1015.5
20260509034539 59 0 0.0 0.0 0.00 0.00 0.00 60 1015.6
20260509034026 59 0 0.0 0.0 0.00 0.00 0.00 60 1015.6
20260509033524 59 0 0.0 0.0 0.00 0.00 0.00 61 1015.6
20260509033039 59 0 0.0 1.0 0.00 0.00 0.00 61 1015.8
20260509032525 59 0 0.0 1.0 0.00 0.00 0.00 61 1015.9
20260509032023 59 0 0.0 0.0 0.00 0.00 0.00 62 1015.9
20260509031540 59 0 0.0 0.0 0.00 0.00 0.00 62 1015.7
20260509031024 59 0 0.0 0.0 0.00 0.00 0.00 63 1015.6
20260509030526 59 0 0.0 0.0 0.00 0.00 0.00 62 1015.8
20260509030038 59 0 0.0 0.0 0.00 0.00 0.00 62 1015.7
20260509025523 59 0 0.0 0.0 0.00 0.00 0.00 62 1015.6
20260509025024 59 0 0.0 0.0 0.00 0.00 0.00 62 1015.7
20260509024537 59 0 0.0 0.0 0.00 0.00 0.00 62 1015.6
20260509024023 59 0 0.0 0.0 0.00 0.00 0.00 62 1015.5
20260509023523 59 0 0.0 0.0 0.00 0.00 0.00 62 1015.6
20260509023040 59 0 0.0 0.0 0.00 0.00 0.00 62 1015.6
20260509022525 59 0 0.0 0.0 0.00 0.00 0.00 61 1015.5
20260509022024 59 0 0.0 0.0 0.00 0.00 0.00 61 1015.6
20260509021538 60 0 0.0 0.0 0.00 0.00 0.00 61 1015.6
20260509021025 60 0 0.0 0.0 0.00 0.00 0.00 61 1015.7
20260509020526 60 0 0.0 0.0 0.00 0.00 0.00 60 1015.6
20260509020039 60 0 0.0 0.0 0.00 0.00 0.00 60 1015.4
20260509015526 61 0 0.0 0.0 0.00 0.00 0.00 59 1015.4
20260509015024 61 0 0.0 0.0 0.00 0.00 0.00 59 1015.5
20260509014540 61 0 0.0 0.0 0.00 0.00 0.00 57 1015.5
20260509014030 61 0 0.0 0.0 0.00 0.00 0.00 58 1015.3
20260509013523 61 0 0.0 0.0 0.00 0.00 0.00 57 1015.3
20260509013038 61 0 0.0 0.0 0.00 0.00 0.00 57 1015.3
20260509012523 61 0 0.0 0.0 0.00 0.00 0.00 56 1015.1
20260509012022 61 0 0.0 0.0 0.00 0.00 0.00 57 1015.2
20260509011543 62 0 0.0 0.0 0.00 0.00 0.00 56 1015.1
20260509011023 62 0 0.0 0.0 0.00 0.00 0.00 56 1015.1
20260509010523 62 0 0.0 0.0 0.00 0.00 0.00 56 1015.2
20260509010041 62 0 0.0 1.0 0.00 0.00 0.00 55 1015.1
20260509005523 62 0 0.0 1.0 0.00 0.00 0.00 55 1015.0
20260509005023 62 127 0.0 1.0 0.00 0.00 0.00 55 1015.0
20260509004541 62 0 0.0 1.0 0.00 0.00 0.00 55 1015.0
20260509004023 62 0 0.0 2.0 0.00 0.00 0.00 55 1015.1
20260509003526 63 0 0.0 2.0 0.00 0.00 0.00 54 1014.8
20260509003042 63 0 0.0 2.0 0.00 0.00 0.00 54 1015.0
20260509002522 63 107 0.0 3.0 0.00 0.00 0.00 54 1015.0
20260509002022 63 0 0.0 3.0 0.00 0.00 0.00 53 1015.1
20260509001538 63 98 1.0 3.0 0.00 0.00 0.00 53 1015.1